owner,sensor,date,latitude,longitude,sea_surface_height_above_sea_level,qcFlag 
COMPS,ioos:station:USF.COMPS:EGK:1,2012-02-02T20:00:00Z,27.6010,-82.7510,-0.041,1111122 
COMPS,ioos:station:USF.COMPS:EGK:1,2012-02-02T20:06:00Z,27.6010,-82.7510,-0.042,1111122 
COMPS,ioos:station:USF.COMPS:EGK:1,2012-02-02T20:12:00Z,27.6010,-82.7510,-0.034,1111122 
COMPS,ioos:station:USF.COMPS:EGK:1,2012-02-02T20:18:00Z,27.6010,-82.7510,-0.029,1111122 
COMPS,ioos:station:USF.COMPS:EGK:1,2012-02-02T20:24:00Z,27.6010,-82.7510,-0.024,1111122 
COMPS,ioos:station:USF.COMPS:EGK:1,2012-02-02T20:30:00Z,27.6010,-82.7510,-0.007,1111122 
COMPS,ioos:station:USF.COMPS:EGK:1,2012-02-02T20:36:00Z,27.6010,-82.7510,-0.008,1111122 
COMPS,ioos:station:USF.COMPS:EGK:1,2012-02-02T20:42:00Z,27.6010,-82.7510,-0.009,1111122 
COMPS,ioos:station:USF.COMPS:EGK:1,2012-02-02T20:48:00Z,27.6010,-82.7510,-0.015,1111122 
COMPS,ioos:station:USF.COMPS:EGK:1,2012-02-02T20:54:00Z,27.6010,-82.7510,-0.01,1111122 
COMPS,ioos:station:USF.COMPS:EGK:1,2012-02-02T21:00:00Z,27.6010,-82.7510,-0.011,1111122 
COMPS,ioos:station:USF.COMPS:EGK:1,2012-02-02T21:06:00Z,27.6010,-82.7510,0.015,1111122 
COMPS,ioos:station:USF.COMPS:EGK:1,2012-02-02T21:12:00Z,27.6010,-82.7510,0.02,1111122 
COMPS,ioos:station:USF.COMPS:EGK:1,2012-02-02T21:18:00Z,27.6010,-82.7510,0.017,1111122 
COMPS,ioos:station:USF.COMPS:EGK:1,2012-02-02T21:24:00Z,27.6010,-82.7510,0.018,1111122 
COMPS,ioos:station:USF.COMPS:EGK:1,2012-02-02T21:30:00Z,27.6010,-82.7510,0.026,1111122 
COMPS,ioos:station:USF.COMPS:EGK:1,2012-02-02T21:36:00Z,27.6010,-82.7510,0.033,1111122 
COMPS,ioos:station:USF.COMPS:EGK:1,2012-02-02T21:42:00Z,27.6010,-82.7510,0.052,1111122 
COMPS,ioos:station:USF.COMPS:EGK:1,2012-02-02T21:48:00Z,27.6010,-82.7510,0.051,1111122 
COMPS,ioos:station:USF.COMPS:EGK:1,2012-02-02T21:54:00Z,27.6010,-82.7510,0.056,1111122 
COMPS,ioos:station:USF.COMPS:EGK:1,2012-02-02T22:00:00Z,27.6010,-82.7510,0.06,1111122 
COMPS,ioos:station:USF.COMPS:EGK:1,2012-02-02T22:06:00Z,27.6010,-82.7510,0.074,1111122 
COMPS,ioos:station:USF.COMPS:EGK:1,2012-02-02T22:12:00Z,27.6010,-82.7510,0.076,1111122 
COMPS,ioos:station:USF.COMPS:EGK:1,2012-02-02T22:18:00Z,27.6010,-82.7510,0.075,1111122 
COMPS,ioos:station:USF.COMPS:EGK:1,2012-02-02T22:24:00Z,27.6010,-82.7510,0.082,1111122 
COMPS,ioos:station:USF.COMPS:EGK:1,2012-02-02T22:30:00Z,27.6010,-82.7510,0.095,1111122 
COMPS,ioos:station:USF.COMPS:EGK:1,2012-02-02T22:36:00Z,27.6010,-82.7510,0.103,1111122 
COMPS,ioos:station:USF.COMPS:EGK:1,2012-02-02T22:42:00Z,27.6010,-82.7510,0.104,1111122 
COMPS,ioos:station:USF.COMPS:EGK:1,2012-02-02T22:48:00Z,27.6010,-82.7510,0.096,1111122 
COMPS,ioos:station:USF.COMPS:EGK:1,2012-02-02T22:54:00Z,27.6010,-82.7510,0.108,1111122 
COMPS,ioos:station:USF.COMPS:EGK:1,2012-02-02T23:00:00Z,27.6010,-82.7510,0.111,1111122 
COMPS,ioos:station:USF.COMPS:EGK:1,2012-02-02T23:06:00Z,27.6010,-82.7510,0.109,1111122 
COMPS,ioos:station:USF.COMPS:EGK:1,2012-02-02T23:12:00Z,27.6010,-82.7510,0.111,1111122 
COMPS,ioos:station:USF.COMPS:EGK:1,2012-02-02T23:18:00Z,27.6010,-82.7510,0.111,1111122 
COMPS,ioos:station:USF.COMPS:EGK:1,2012-02-02T23:24:00Z,27.6010,-82.7510,0.118,1111122 
COMPS,ioos:station:USF.COMPS:EGK:1,2012-02-02T23:30:00Z,27.6010,-82.7510,0.128,1111122 
COMPS,ioos:station:USF.COMPS:EGK:1,2012-02-02T23:36:00Z,27.6010,-82.7510,0.128,1111122 
COMPS,ioos:station:USF.COMPS:EGK:1,2012-02-02T23:42:00Z,27.6010,-82.7510,0.126,1111122 
COMPS,ioos:station:USF.COMPS:EGK:1,2012-02-02T23:48:00Z,27.6010,-82.7510,0.132,1111122 
COMPS,ioos:station:USF.COMPS:EGK:1,2012-02-02T23:54:00Z,27.6010,-82.7510,0.128,1111122 
COMPS,ioos:station:USF.COMPS:EGK:1,2012-02-03T00:00:00Z,27.6010,-82.7510,0.128,1111122 
COMPS,ioos:station:USF.COMPS:EGK:1,2012-02-03T00:06:00Z,27.6010,-82.7510,0.131,1111122 
COMPS,ioos:station:USF.COMPS:EGK:1,2012-02-03T00:12:00Z,27.6010,-82.7510,0.131,1111122 
COMPS,ioos:station:USF.COMPS:EGK:1,2012-02-03T00:18:00Z,27.6010,-82.7510,0.135,1111122 
COMPS,ioos:station:USF.COMPS:EGK:1,2012-02-03T00:24:00Z,27.6010,-82.7510,0.133,1111122 
COMPS,ioos:station:USF.COMPS:EGK:1,2012-02-03T00:30:00Z,27.6010,-82.7510,0.131,1111122 
COMPS,ioos:station:USF.COMPS:EGK:1,2012-02-03T00:36:00Z,27.6010,-82.7510,0.129,1111122 
COMPS,ioos:station:USF.COMPS:EGK:1,2012-02-03T00:42:00Z,27.6010,-82.7510,0.124,1111122 
COMPS,ioos:station:USF.COMPS:EGK:1,2012-02-03T00:48:00Z,27.6010,-82.7510,0.126,1111122 
COMPS,ioos:station:USF.COMPS:EGK:1,2012-02-03T00:54:00Z,27.6010,-82.7510,0.128,1111122 
COMPS,ioos:station:USF.COMPS:EGK:1,2012-02-03T01:00:00Z,27.6010,-82.7510,0.126,1111122 
COMPS,ioos:station:USF.COMPS:EGK:1,2012-02-03T01:06:00Z,27.6010,-82.7510,0.119,1111122 
COMPS,ioos:station:USF.COMPS:EGK:1,2012-02-03T01:12:00Z,27.6010,-82.7510,0.113,1111122 
COMPS,ioos:station:USF.COMPS:EGK:1,2012-02-03T01:18:00Z,27.6010,-82.7510,0.118,1111122 
COMPS,ioos:station:USF.COMPS:EGK:1,2012-02-03T01:24:00Z,27.6010,-82.7510,0.102,1111122 
COMPS,ioos:station:USF.COMPS:EGK:1,2012-02-03T01:30:00Z,27.6010,-82.7510,0.086,1111122 
COMPS,ioos:station:USF.COMPS:EGK:1,2012-02-03T01:36:00Z,27.6010,-82.7510,0.083,1111122 
COMPS,ioos:station:USF.COMPS:EGK:1,2012-02-03T01:42:00Z,27.6010,-82.7510,0.08,1111122 
COMPS,ioos:station:USF.COMPS:EGK:1,2012-02-03T01:48:00Z,27.6010,-82.7510,0.082,1111122 
COMPS,ioos:station:USF.COMPS:EGK:1,2012-02-03T01:54:00Z,27.6010,-82.7510,0.088,1111122 
COMPS,ioos:station:USF.COMPS:EGK:1,2012-02-03T02:00:00Z,27.6010,-82.7510,0.078,1111122 
COMPS,ioos:station:USF.COMPS:EGK:1,2012-02-03T02:06:00Z,27.6010,-82.7510,0.076,1111122 
COMPS,ioos:station:USF.COMPS:EGK:1,2012-02-03T02:12:00Z,27.6010,-82.7510,0.067,1111122 
COMPS,ioos:station:USF.COMPS:EGK:1,2012-02-03T02:18:00Z,27.6010,-82.7510,0.059,1111122 
COMPS,ioos:station:USF.COMPS:EGK:1,2012-02-03T02:24:00Z,27.6010,-82.7510,0.049,1111122 
COMPS,ioos:station:USF.COMPS:EGK:1,2012-02-03T02:30:00Z,27.6010,-82.7510,0.046,1111122 
COMPS,ioos:station:USF.COMPS:EGK:1,2012-02-03T02:36:00Z,27.6010,-82.7510,0.04,1111122 
COMPS,ioos:station:USF.COMPS:EGK:1,2012-02-03T02:42:00Z,27.6010,-82.7510,0.028,1111122 
COMPS,ioos:station:USF.COMPS:EGK:1,2012-02-03T02:48:00Z,27.6010,-82.7510,0.024,1111122 
COMPS,ioos:station:USF.COMPS:EGK:1,2012-02-03T02:54:00Z,27.6010,-82.7510,0.008,1111122 
COMPS,ioos:station:USF.COMPS:EGK:1,2012-02-03T03:00:00Z,27.6010,-82.7510,0.004,1111122 
COMPS,ioos:station:USF.COMPS:EGK:1,2012-02-03T03:06:00Z,27.6010,-82.7510,-0.004,1111122 
COMPS,ioos:station:USF.COMPS:EGK:1,2012-02-03T03:12:00Z,27.6010,-82.7510,-0.014,1111122 
COMPS,ioos:station:USF.COMPS:EGK:1,2012-02-03T03:18:00Z,27.6010,-82.7510,-0.035,1111122 
COMPS,ioos:station:USF.COMPS:EGK:1,2012-02-03T03:24:00Z,27.6010,-82.7510,-0.05,1111122 
COMPS,ioos:station:USF.COMPS:EGK:1,2012-02-03T03:30:00Z,27.6010,-82.7510,-0.062,1111122 
COMPS,ioos:station:USF.COMPS:EGK:1,2012-02-03T03:36:00Z,27.6010,-82.7510,-0.078,1111122 
COMPS,ioos:station:USF.COMPS:EGK:1,2012-02-03T03:42:00Z,27.6010,-82.7510,-0.086,1111122 
COMPS,ioos:station:USF.COMPS:EGK:1,2012-02-03T03:48:00Z,27.6010,-82.7510,-0.093,1111122 
COMPS,ioos:station:USF.COMPS:EGK:1,2012-02-03T03:54:00Z,27.6010,-82.7510,-0.105,1111122 
COMPS,ioos:station:USF.COMPS:EGK:1,2012-02-03T04:00:00Z,27.6010,-82.7510,-0.118,1111122 
COMPS,ioos:station:USF.COMPS:EGK:1,2012-02-03T04:06:00Z,27.6010,-82.7510,-0.137,1111122 
COMPS,ioos:station:USF.COMPS:EGK:1,2012-02-03T04:12:00Z,27.6010,-82.7510,-0.145,1111122 
COMPS,ioos:station:USF.COMPS:EGK:1,2012-02-03T04:18:00Z,27.6010,-82.7510,-0.159,1111122 
COMPS,ioos:station:USF.COMPS:EGK:1,2012-02-03T04:24:00Z,27.6010,-82.7510,-0.178,1111122 
COMPS,ioos:station:USF.COMPS:EGK:1,2012-02-03T04:30:00Z,27.6010,-82.7510,-0.189,1111122 
COMPS,ioos:station:USF.COMPS:EGK:1,2012-02-03T04:36:00Z,27.6010,-82.7510,-0.202,1111122 
COMPS,ioos:station:USF.COMPS:EGK:1,2012-02-03T04:42:00Z,27.6010,-82.7510,-0.215,1111122 
COMPS,ioos:station:USF.COMPS:EGK:1,2012-02-03T04:48:00Z,27.6010,-82.7510,-0.218,1111122 
COMPS,ioos:station:USF.COMPS:EGK:1,2012-02-03T04:54:00Z,27.6010,-82.7510,-0.229,1111122 
COMPS,ioos:station:USF.COMPS:EGK:1,2012-02-03T05:00:00Z,27.6010,-82.7510,-0.245,1111122 
COMPS,ioos:station:USF.COMPS:EGK:1,2012-02-03T05:06:00Z,27.6010,-82.7510,-0.264,1111122 
COMPS,ioos:station:USF.COMPS:EGK:1,2012-02-03T05:12:00Z,27.6010,-82.7510,-0.294,1111122 
COMPS,ioos:station:USF.COMPS:EGK:1,2012-02-03T05:18:00Z,27.6010,-82.7510,-0.304,1111122 
COMPS,ioos:station:USF.COMPS:EGK:1,2012-02-03T05:24:00Z,27.6010,-82.7510,-0.308,1111122 
COMPS,ioos:station:USF.COMPS:EGK:1,2012-02-03T05:30:00Z,27.6010,-82.7510,-0.317,1111122 
COMPS,ioos:station:USF.COMPS:EGK:1,2012-02-03T05:36:00Z,27.6010,-82.7510,-0.334,1111122 
COMPS,ioos:station:USF.COMPS:EGK:1,2012-02-03T05:42:00Z,27.6010,-82.7510,-0.35,1111122 
COMPS,ioos:station:USF.COMPS:EGK:1,2012-02-03T05:48:00Z,27.6010,-82.7510,-0.37,1111122 
COMPS,ioos:station:USF.COMPS:EGK:1,2012-02-03T05:54:00Z,27.6010,-82.7510,-0.384,1111122 
COMPS,ioos:station:USF.COMPS:EGK:1,2012-02-03T06:00:00Z,27.6010,-82.7510,-0.4,1111122 
COMPS,ioos:station:USF.COMPS:EGK:1,2012-02-03T06:06:00Z,27.6010,-82.7510,-0.404,1111122 
COMPS,ioos:station:USF.COMPS:EGK:1,2012-02-03T06:12:00Z,27.6010,-82.7510,-0.409,1111122 
COMPS,ioos:station:USF.COMPS:EGK:1,2012-02-03T06:18:00Z,27.6010,-82.7510,-0.418,1111122 
COMPS,ioos:station:USF.COMPS:EGK:1,2012-02-03T06:24:00Z,27.6010,-82.7510,-0.425,1111122 
COMPS,ioos:station:USF.COMPS:EGK:1,2012-02-03T06:30:00Z,27.6010,-82.7510,-0.435,1111122 
COMPS,ioos:station:USF.COMPS:EGK:1,2012-02-03T06:36:00Z,27.6010,-82.7510,-0.444,1111122 
COMPS,ioos:station:USF.COMPS:EGK:1,2012-02-03T06:42:00Z,27.6010,-82.7510,-0.449,1111122 
COMPS,ioos:station:USF.COMPS:EGK:1,2012-02-03T06:48:00Z,27.6010,-82.7510,-0.466,1111122 
COMPS,ioos:station:USF.COMPS:EGK:1,2012-02-03T06:54:00Z,27.6010,-82.7510,-0.47,1111122 
COMPS,ioos:station:USF.COMPS:EGK:1,2012-02-03T07:00:00Z,27.6010,-82.7510,-0.482,1111122 
COMPS,ioos:station:USF.COMPS:EGK:1,2012-02-03T07:06:00Z,27.6010,-82.7510,-0.481,1111122 
COMPS,ioos:station:USF.COMPS:EGK:1,2012-02-03T07:12:00Z,27.6010,-82.7510,-0.489,1111122 
COMPS,ioos:station:USF.COMPS:EGK:1,2012-02-03T07:18:00Z,27.6010,-82.7510,-0.49,1111122 
COMPS,ioos:station:USF.COMPS:EGK:1,2012-02-03T07:24:00Z,27.6010,-82.7510,-0.491,1111122 
COMPS,ioos:station:USF.COMPS:EGK:1,2012-02-03T07:30:00Z,27.6010,-82.7510,-0.502,1111122 
COMPS,ioos:station:USF.COMPS:EGK:1,2012-02-03T07:36:00Z,27.6010,-82.7510,-0.512,1111122 
COMPS,ioos:station:USF.COMPS:EGK:1,2012-02-03T07:42:00Z,27.6010,-82.7510,-0.527,1111122 
COMPS,ioos:station:USF.COMPS:EGK:1,2012-02-03T07:48:00Z,27.6010,-82.7510,-0.533,1111122 
COMPS,ioos:station:USF.COMPS:EGK:1,2012-02-03T07:54:00Z,27.6010,-82.7510,-0.535,1111122 
COMPS,ioos:station:USF.COMPS:EGK:1,2012-02-03T08:00:00Z,27.6010,-82.7510,-0.537,1111122 
COMPS,ioos:station:USF.COMPS:EGK:1,2012-02-03T08:06:00Z,27.6010,-82.7510,-0.541,1111122 
COMPS,ioos:station:USF.COMPS:EGK:1,2012-02-03T08:12:00Z,27.6010,-82.7510,-0.54,1111122 
COMPS,ioos:station:USF.COMPS:EGK:1,2012-02-03T08:18:00Z,27.6010,-82.7510,-0.541,1111122 
COMPS,ioos:station:USF.COMPS:EGK:1,2012-02-03T08:24:00Z,27.6010,-82.7510,-0.542,1111122 
COMPS,ioos:station:USF.COMPS:EGK:1,2012-02-03T08:30:00Z,27.6010,-82.7510,-0.542,1111122 
COMPS,ioos:station:USF.COMPS:EGK:1,2012-02-03T08:36:00Z,27.6010,-82.7510,-0.544,1111122 
COMPS,ioos:station:USF.COMPS:EGK:1,2012-02-03T08:42:00Z,27.6010,-82.7510,-0.549,1111122 
COMPS,ioos:station:USF.COMPS:EGK:1,2012-02-03T08:48:00Z,27.6010,-82.7510,-0.548,1111122 
COMPS,ioos:station:USF.COMPS:EGK:1,2012-02-03T08:54:00Z,27.6010,-82.7510,-0.547,1111122 
COMPS,ioos:station:USF.COMPS:EGK:1,2012-02-03T09:00:00Z,27.6010,-82.7510,-0.548,1111122 
COMPS,ioos:station:USF.COMPS:EGK:1,2012-02-03T09:06:00Z,27.6010,-82.7510,-0.545,1111122 
COMPS,ioos:station:USF.COMPS:EGK:1,2012-02-03T09:12:00Z,27.6010,-82.7510,-0.533,1111122 
COMPS,ioos:station:USF.COMPS:EGK:1,2012-02-03T09:18:00Z,27.6010,-82.7510,-0.516,1111122 
COMPS,ioos:station:USF.COMPS:EGK:1,2012-02-03T09:24:00Z,27.6010,-82.7510,-0.512,1111122 
COMPS,ioos:station:USF.COMPS:EGK:1,2012-02-03T09:30:00Z,27.6010,-82.7510,-0.514,1111122 
COMPS,ioos:station:USF.COMPS:EGK:1,2012-02-03T09:36:00Z,27.6010,-82.7510,-0.511,1111122 
COMPS,ioos:station:USF.COMPS:EGK:1,2012-02-03T09:42:00Z,27.6010,-82.7510,-0.515,1111122 
COMPS,ioos:station:USF.COMPS:EGK:1,2012-02-03T09:48:00Z,27.6010,-82.7510,-0.506,1111122 
COMPS,ioos:station:USF.COMPS:EGK:1,2012-02-03T09:54:00Z,27.6010,-82.7510,-0.485,1111122 
COMPS,ioos:station:USF.COMPS:EGK:1,2012-02-03T10:00:00Z,27.6010,-82.7510,-0.472,1111122 
COMPS,ioos:station:USF.COMPS:EGK:1,2012-02-03T10:06:00Z,27.6010,-82.7510,-0.462,1111122 
COMPS,ioos:station:USF.COMPS:EGK:1,2012-02-03T10:12:00Z,27.6010,-82.7510,-0.463,1111122 
COMPS,ioos:station:USF.COMPS:EGK:1,2012-02-03T10:18:00Z,27.6010,-82.7510,-0.453,1111122 
COMPS,ioos:station:USF.COMPS:EGK:1,2012-02-03T10:24:00Z,27.6010,-82.7510,-0.448,1111122 
COMPS,ioos:station:USF.COMPS:EGK:1,2012-02-03T10:30:00Z,27.6010,-82.7510,-0.434,1111122 
COMPS,ioos:station:USF.COMPS:EGK:1,2012-02-03T10:36:00Z,27.6010,-82.7510,-0.416,1111122 
COMPS,ioos:station:USF.COMPS:EGK:1,2012-02-03T10:42:00Z,27.6010,-82.7510,-0.405,1111122 
COMPS,ioos:station:USF.COMPS:EGK:1,2012-02-03T10:48:00Z,27.6010,-82.7510,-0.398,1111122 
COMPS,ioos:station:USF.COMPS:EGK:1,2012-02-03T10:54:00Z,27.6010,-82.7510,-0.386,1111122 
COMPS,ioos:station:USF.COMPS:EGK:1,2012-02-03T11:00:00Z,27.6010,-82.7510,-0.386,1111122 
COMPS,ioos:station:USF.COMPS:EGK:1,2012-02-03T11:06:00Z,27.6010,-82.7510,-0.387,1111122 
COMPS,ioos:station:USF.COMPS:EGK:1,2012-02-03T11:12:00Z,27.6010,-82.7510,-0.382,1111122 
COMPS,ioos:station:USF.COMPS:EGK:1,2012-02-03T11:18:00Z,27.6010,-82.7510,-0.37,1111122 
COMPS,ioos:station:USF.COMPS:EGK:1,2012-02-03T11:24:00Z,27.6010,-82.7510,-0.36,1111122 
COMPS,ioos:station:USF.COMPS:EGK:1,2012-02-03T11:30:00Z,27.6010,-82.7510,-0.353,1111122 
COMPS,ioos:station:USF.COMPS:EGK:1,2012-02-03T11:36:00Z,27.6010,-82.7510,-0.347,1111122 
COMPS,ioos:station:USF.COMPS:EGK:1,2012-02-03T11:42:00Z,27.6010,-82.7510,-0.338,1111122 
COMPS,ioos:station:USF.COMPS:EGK:1,2012-02-03T11:48:00Z,27.6010,-82.7510,-0.331,1111122 
COMPS,ioos:station:USF.COMPS:EGK:1,2012-02-03T11:54:00Z,27.6010,-82.7510,-0.317,1111122 
COMPS,ioos:station:USF.COMPS:EGK:1,2012-02-03T12:00:00Z,27.6010,-82.7510,-0.312,1111122 
COMPS,ioos:station:USF.COMPS:EGK:1,2012-02-03T12:06:00Z,27.6010,-82.7510,-0.313,1111122 
COMPS,ioos:station:USF.COMPS:EGK:1,2012-02-03T12:12:00Z,27.6010,-82.7510,-0.309,1111122 
COMPS,ioos:station:USF.COMPS:EGK:1,2012-02-03T12:18:00Z,27.6010,-82.7510,-0.305,1111122 
COMPS,ioos:station:USF.COMPS:EGK:1,2012-02-03T12:24:00Z,27.6010,-82.7510,-0.292,1111122 
COMPS,ioos:station:USF.COMPS:EGK:1,2012-02-03T12:30:00Z,27.6010,-82.7510,-0.286,1111122 
COMPS,ioos:station:USF.COMPS:EGK:1,2012-02-03T12:36:00Z,27.6010,-82.7510,-0.28,1111122 
COMPS,ioos:station:USF.COMPS:EGK:1,2012-02-03T12:42:00Z,27.6010,-82.7510,-0.271,1111122 
COMPS,ioos:station:USF.COMPS:EGK:1,2012-02-03T12:48:00Z,27.6010,-82.7510,-0.265,1111122 
COMPS,ioos:station:USF.COMPS:EGK:1,2012-02-03T12:54:00Z,27.6010,-82.7510,-0.264,1111122 
COMPS,ioos:station:USF.COMPS:EGK:1,2012-02-03T13:00:00Z,27.6010,-82.7510,-0.256,1111122 
COMPS,ioos:station:USF.COMPS:EGK:1,2012-02-03T13:06:00Z,27.6010,-82.7510,-0.246,1111122 
COMPS,ioos:station:USF.COMPS:EGK:1,2012-02-03T13:12:00Z,27.6010,-82.7510,-0.238,1111122 
COMPS,ioos:station:USF.COMPS:EGK:1,2012-02-03T13:18:00Z,27.6010,-82.7510,-0.233,1111122 
COMPS,ioos:station:USF.COMPS:EGK:1,2012-02-03T13:24:00Z,27.6010,-82.7510,-0.229,1111122 
COMPS,ioos:station:USF.COMPS:EGK:1,2012-02-03T13:30:00Z,27.6010,-82.7510,-0.217,1111122 
COMPS,ioos:station:USF.COMPS:EGK:1,2012-02-03T13:36:00Z,27.6010,-82.7510,-0.212,1111122 
COMPS,ioos:station:USF.COMPS:EGK:1,2012-02-03T13:42:00Z,27.6010,-82.7510,-0.21,1111122 
COMPS,ioos:station:USF.COMPS:EGK:1,2012-02-03T13:48:00Z,27.6010,-82.7510,-0.202,1111122 
COMPS,ioos:station:USF.COMPS:EGK:1,2012-02-03T13:54:00Z,27.6010,-82.7510,-0.195,1111122 
COMPS,ioos:station:USF.COMPS:EGK:1,2012-02-03T14:00:00Z,27.6010,-82.7510,-0.192,1111122 
COMPS,ioos:station:USF.COMPS:EGK:1,2012-02-03T14:06:00Z,27.6010,-82.7510,-0.193,1111122 
COMPS,ioos:station:USF.COMPS:EGK:1,2012-02-03T14:12:00Z,27.6010,-82.7510,-0.189,1111122 
COMPS,ioos:station:USF.COMPS:EGK:1,2012-02-03T14:18:00Z,27.6010,-82.7510,-0.177,1111122 
COMPS,ioos:station:USF.COMPS:EGK:1,2012-02-03T14:24:00Z,27.6010,-82.7510,-0.171,1111122 
COMPS,ioos:station:USF.COMPS:EGK:1,2012-02-03T14:30:00Z,27.6010,-82.7510,-0.173,1111122 
COMPS,ioos:station:USF.COMPS:EGK:1,2012-02-03T14:36:00Z,27.6010,-82.7510,-0.177,1111122 
COMPS,ioos:station:USF.COMPS:EGK:1,2012-02-03T14:42:00Z,27.6010,-82.7510,-0.178,1111122 
COMPS,ioos:station:USF.COMPS:EGK:1,2012-02-03T14:48:00Z,27.6010,-82.7510,-0.182,1111122 
COMPS,ioos:station:USF.COMPS:EGK:1,2012-02-03T14:54:00Z,27.6010,-82.7510,-0.168,1111122 
COMPS,ioos:station:USF.COMPS:EGK:1,2012-02-03T15:00:00Z,27.6010,-82.7510,-0.174,1111122 
COMPS,ioos:station:USF.COMPS:EGK:1,2012-02-03T15:06:00Z,27.6010,-82.7510,-0.173,1111122 
COMPS,ioos:station:USF.COMPS:EGK:1,2012-02-03T15:12:00Z,27.6010,-82.7510,-0.184,1111122 
COMPS,ioos:station:USF.COMPS:EGK:1,2012-02-03T15:18:00Z,27.6010,-82.7510,-0.17,1111122 
COMPS,ioos:station:USF.COMPS:EGK:1,2012-02-03T15:24:00Z,27.6010,-82.7510,-0.16,1111122 
COMPS,ioos:station:USF.COMPS:EGK:1,2012-02-03T15:30:00Z,27.6010,-82.7510,-0.15,1111122 
COMPS,ioos:station:USF.COMPS:EGK:1,2012-02-03T15:36:00Z,27.6010,-82.7510,-0.154,1111122 
COMPS,ioos:station:USF.COMPS:EGK:1,2012-02-03T15:42:00Z,27.6010,-82.7510,-0.152,1111122 
COMPS,ioos:station:USF.COMPS:EGK:1,2012-02-03T15:48:00Z,27.6010,-82.7510,-0.15,1111122 
COMPS,ioos:station:USF.COMPS:EGK:1,2012-02-03T15:54:00Z,27.6010,-82.7510,-0.137,1111122 
COMPS,ioos:station:USF.COMPS:EGK:1,2012-02-03T16:00:00Z,27.6010,-82.7510,-0.124,1111122 
COMPS,ioos:station:USF.COMPS:EGK:1,2012-02-03T16:06:00Z,27.6010,-82.7510,-0.124,1111122 
COMPS,ioos:station:USF.COMPS:EGK:1,2012-02-03T16:12:00Z,27.6010,-82.7510,-0.127,1111122 
COMPS,ioos:station:USF.COMPS:EGK:1,2012-02-03T16:18:00Z,27.6010,-82.7510,-0.125,1111122 
COMPS,ioos:station:USF.COMPS:EGK:1,2012-02-03T16:24:00Z,27.6010,-82.7510,-0.113,1111122 
COMPS,ioos:station:USF.COMPS:EGK:1,2012-02-03T16:30:00Z,27.6010,-82.7510,-0.101,1111122 
COMPS,ioos:station:USF.COMPS:EGK:1,2012-02-03T16:36:00Z,27.6010,-82.7510,-0.096,1111122 
COMPS,ioos:station:USF.COMPS:EGK:1,2012-02-03T16:42:00Z,27.6010,-82.7510,-0.104,1111122 
COMPS,ioos:station:USF.COMPS:EGK:1,2012-02-03T16:48:00Z,27.6010,-82.7510,-0.112,1111122 
COMPS,ioos:station:USF.COMPS:EGK:1,2012-02-03T16:54:00Z,27.6010,-82.7510,-0.122,1111122 
COMPS,ioos:station:USF.COMPS:EGK:1,2012-02-03T17:00:00Z,27.6010,-82.7510,-0.118,1111122 
COMPS,ioos:station:USF.COMPS:EGK:1,2012-02-03T17:06:00Z,27.6010,-82.7510,-0.118,1111122 
COMPS,ioos:station:USF.COMPS:EGK:1,2012-02-03T17:12:00Z,27.6010,-82.7510,-0.124,1111122 
COMPS,ioos:station:USF.COMPS:EGK:1,2012-02-03T17:18:00Z,27.6010,-82.7510,-0.123,1111122 
COMPS,ioos:station:USF.COMPS:EGK:1,2012-02-03T17:24:00Z,27.6010,-82.7510,-0.12,1111122 
COMPS,ioos:station:USF.COMPS:EGK:1,2012-02-03T17:30:00Z,27.6010,-82.7510,-0.125,1111122 
COMPS,ioos:station:USF.COMPS:EGK:1,2012-02-03T17:36:00Z,27.6010,-82.7510,-0.121,1111122 
COMPS,ioos:station:USF.COMPS:EGK:1,2012-02-03T17:42:00Z,27.6010,-82.7510,-0.109,1111122 
COMPS,ioos:station:USF.COMPS:EGK:1,2012-02-03T17:48:00Z,27.6010,-82.7510,-0.099,1111122 
COMPS,ioos:station:USF.COMPS:EGK:1,2012-02-03T17:54:00Z,27.6010,-82.7510,-0.104,1111122 
COMPS,ioos:station:USF.COMPS:EGK:1,2012-02-03T18:00:00Z,27.6010,-82.7510,-0.103,1111122 
COMPS,ioos:station:USF.COMPS:EGK:1,2012-02-03T18:06:00Z,27.6010,-82.7510,-0.09,1111122 
COMPS,ioos:station:USF.COMPS:EGK:1,2012-02-03T18:12:00Z,27.6010,-82.7510,-0.094,1111122 
COMPS,ioos:station:USF.COMPS:EGK:1,2012-02-03T18:18:00Z,27.6010,-82.7510,-0.104,1111122 
COMPS,ioos:station:USF.COMPS:EGK:1,2012-02-03T18:24:00Z,27.6010,-82.7510,-0.106,1111122 
COMPS,ioos:station:USF.COMPS:EGK:1,2012-02-03T18:30:00Z,27.6010,-82.7510,-0.102,1111122 
COMPS,ioos:station:USF.COMPS:EGK:1,2012-02-03T18:36:00Z,27.6010,-82.7510,-0.11,1111122 
COMPS,ioos:station:USF.COMPS:EGK:1,2012-02-03T18:42:00Z,27.6010,-82.7510,-0.097,1111122 
COMPS,ioos:station:USF.COMPS:EGK:1,2012-02-03T18:48:00Z,27.6010,-82.7510,-0.096,1111122 
COMPS,ioos:station:USF.COMPS:EGK:1,2012-02-03T18:54:00Z,27.6010,-82.7510,-0.088,1111122 
COMPS,ioos:station:USF.COMPS:EGK:1,2012-02-03T19:00:00Z,27.6010,-82.7510,-0.085,1111122 
COMPS,ioos:station:USF.COMPS:EGK:1,2012-02-03T19:06:00Z,27.6010,-82.7510,-0.084,1111122 
COMPS,ioos:station:USF.COMPS:EGK:1,2012-02-03T19:12:00Z,27.6010,-82.7510,-0.083,1111122 
COMPS,ioos:station:USF.COMPS:EGK:1,2012-02-03T19:18:00Z,27.6010,-82.7510,-0.064,1111122 
COMPS,ioos:station:USF.COMPS:EGK:1,2012-02-03T19:24:00Z,27.6010,-82.7510,-0.067,1111122 
COMPS,ioos:station:USF.COMPS:EGK:1,2012-02-03T19:30:00Z,27.6010,-82.7510,-0.07,1111122 
COMPS,ioos:station:USF.COMPS:EGK:1,2012-02-03T19:36:00Z,27.6010,-82.7510,-0.066,1111122 
COMPS,ioos:station:USF.COMPS:EGK:1,2012-02-03T19:42:00Z,27.6010,-82.7510,-0.063,1111122 
COMPS,ioos:station:USF.COMPS:EGK:1,2012-02-03T19:48:00Z,27.6010,-82.7510,-0.047,1111122 
COMPS,ioos:station:USF.COMPS:EGK:1,2012-02-03T19:54:00Z,27.6010,-82.7510,-0.05,1111122 
COMPS,ioos:station:USF.COMPS:EGK:1,2012-02-03T20:00:00Z,27.6010,-82.7510,-0.048,1111122 
COMPS,ioos:station:USF.COMPS:EGK:1,2012-02-03T20:06:00Z,27.6010,-82.7510,-0.045,1111122 
COMPS,ioos:station:USF.COMPS:EGK:1,2012-02-03T20:12:00Z,27.6010,-82.7510,-0.029,1111122 
COMPS,ioos:station:USF.COMPS:EGK:1,2012-02-03T20:18:00Z,27.6010,-82.7510,-0.031,1111122 
COMPS,ioos:station:USF.COMPS:EGK:1,2012-02-03T20:24:00Z,27.6010,-82.7510,-0.024,1111122 
COMPS,ioos:station:USF.COMPS:EGK:1,2012-02-03T20:30:00Z,27.6010,-82.7510,-0.013,1111122 
COMPS,ioos:station:USF.COMPS:EGK:1,2012-02-03T20:36:00Z,27.6010,-82.7510,-0.001,1111122 
COMPS,ioos:station:USF.COMPS:EGK:1,2012-02-03T20:42:00Z,27.6010,-82.7510,0.008,1111122 
COMPS,ioos:station:USF.COMPS:EGK:1,2012-02-03T20:48:00Z,27.6010,-82.7510,0.014,1111122 
COMPS,ioos:station:USF.COMPS:EGK:1,2012-02-03T20:54:00Z,27.6010,-82.7510,0.012,1111122 
COMPS,ioos:station:USF.COMPS:EGK:1,2012-02-03T21:00:00Z,27.6010,-82.7510,0.013,1111122 
COMPS,ioos:station:USF.COMPS:EGK:1,2012-02-03T21:06:00Z,27.6010,-82.7510,0.021,1111122 
COMPS,ioos:station:USF.COMPS:EGK:1,2012-02-03T21:12:00Z,27.6010,-82.7510,0.029,1111122 
COMPS,ioos:station:USF.COMPS:EGK:1,2012-02-03T21:18:00Z,27.6010,-82.7510,0.036,1111122 
COMPS,ioos:station:USF.COMPS:EGK:1,2012-02-03T21:24:00Z,27.6010,-82.7510,0.039,1111122 
COMPS,ioos:station:USF.COMPS:EGK:1,2012-02-03T21:30:00Z,27.6010,-82.7510,0.031,1111122 
COMPS,ioos:station:USF.COMPS:EGK:1,2012-02-03T21:36:00Z,27.6010,-82.7510,0.038,1111122 
COMPS,ioos:station:USF.COMPS:EGK:1,2012-02-03T21:42:00Z,27.6010,-82.7510,0.04,1111122 
COMPS,ioos:station:USF.COMPS:EGK:1,2012-02-03T21:48:00Z,27.6010,-82.7510,0.043,1111122 
COMPS,ioos:station:USF.COMPS:EGK:1,2012-02-03T21:54:00Z,27.6010,-82.7510,0.058,1111122 
COMPS,ioos:station:USF.COMPS:EGK:1,2012-02-03T22:00:00Z,27.6010,-82.7510,0.066,1111122 
COMPS,ioos:station:USF.COMPS:EGK:1,2012-02-03T22:06:00Z,27.6010,-82.7510,0.072,1111122 
COMPS,ioos:station:USF.COMPS:EGK:1,2012-02-03T22:12:00Z,27.6010,-82.7510,0.082,1111122 
COMPS,ioos:station:USF.COMPS:EGK:1,2012-02-03T22:18:00Z,27.6010,-82.7510,0.086,1111122 
COMPS,ioos:station:USF.COMPS:EGK:1,2012-02-03T22:24:00Z,27.6010,-82.7510,0.097,1111122 
COMPS,ioos:station:USF.COMPS:EGK:1,2012-02-03T22:30:00Z,27.6010,-82.7510,0.114,1111122 
COMPS,ioos:station:USF.COMPS:EGK:1,2012-02-03T22:36:00Z,27.6010,-82.7510,0.121,1111122 
COMPS,ioos:station:USF.COMPS:EGK:1,2012-02-03T22:42:00Z,27.6010,-82.7510,0.13,1111122 
COMPS,ioos:station:USF.COMPS:EGK:1,2012-02-03T22:48:00Z,27.6010,-82.7510,0.134,1111122 
COMPS,ioos:station:USF.COMPS:EGK:1,2012-02-03T22:54:00Z,27.6010,-82.7510,0.139,1111122 